When you browse on this site, cookies collect data to enhance your experience and personalize the content and advertising you see.
Visit our Privacy Policy to learn more. By continuing to use the site, you agree to this use of cookies and data.
  • In Hungary
  • List of Countries
  • For 7 days
  • Water Temperature
  • Satellite Maps
  • Weather Map
  • News
  • Weather Widgets
  • user-avatar
    Login

    Hourly Weather Kalol

    Today, 18 July, Thursday

    Time Temperature Precipitation Wind Pressure Humidity
    00:00 +32°C° 0.1 mm 5 mps 746 mmHg 69%
    01:00 +32°C° 0.1 mm 5 mps 745 mmHg 69%
    02:00 +32°C° 0.1 mm 4 mps 745 mmHg 68%
    03:00 +30°C° 0.1 mm 4 mps 745 mmHg 70%
    04:00 +30°C° 0.1 mm 4 mps 745 mmHg 71%
    05:00 +30°C° 0.1 mm 3 mps 745 mmHg 72%
    06:00 +30°C° 0 mm 4 mps 745 mmHg 69%
    07:00 +32°C° 0 mm 4 mps 746 mmHg 66%
    08:00 +32°C° 0 mm 4 mps 746 mmHg 64%
    09:00 +34°C° 0 mm 4 mps 746 mmHg 58%
    10:00 +35°C° 0 mm 4 mps 746 mmHg 53%
    11:00 +36°C° 0 mm 5 mps 746 mmHg 47%
    12:00 +37°C° 0 mm 5 mps 745 mmHg 45%
    13:00 +39°C° 0 mm 5 mps 745 mmHg 43%
    14:00 +39°C° 0 mm 5 mps 744 mmHg 41%
    15:00 +39°C° 0 mm 5 mps 744 mmHg 41%
    16:00 +38°C° 0 mm 4 mps 743 mmHg 41%
    17:00 +38°C° 0 mm 4 mps 743 mmHg 41%
    18:00 +37°C° 0 mm 5 mps 743 mmHg 46%
    19:00 +36°C° 0 mm 5 mps 744 mmHg 51%
    20:00 +34°C° 0 mm 5 mps 744 mmHg 56%
    21:00 +34°C° 0 mm 6 mps 744 mmHg 59%
    22:00 +33°C° 0 mm 6 mps 745 mmHg 62%
    23:00 +32°C° 0 mm 6 mps 745 mmHg 65%

    Tomorrow, 19 July, Friday

    Time Temperature Precipitation Wind Pressure Humidity
    00:00 +32°C° 0 mm 6 mps 745 mmHg 65%
    01:00 +32°C° 0 mm 5 mps 744 mmHg 66%
    02:00 +32°C° 0 mm 5 mps 744 mmHg 67%
    03:00 +32°C° 0 mm 4 mps 744 mmHg 68%
    04:00 +32°C° 0 mm 4 mps 744 mmHg 69%
    05:00 +30°C° 0 mm 3 mps 745 mmHg 70%
    06:00 +31°C° 0 mm 3 mps 745 mmHg 67%
    07:00 +31°C° 0 mm 3 mps 745 mmHg 65%
    08:00 +33°C° 0 mm 4 mps 746 mmHg 62%
    09:00 +34°C° 0 mm 3 mps 746 mmHg 58%
    10:00 +35°C° 0 mm 3 mps 745 mmHg 53%
    11:00 +36°C° 0 mm 3 mps 745 mmHg 49%
    12:00 +37°C° 0 mm 3 mps 745 mmHg 46%
    13:00 +38°C° 0 mm 3 mps 744 mmHg 43%
    14:00 +39°C° 0 mm 3 mps 744 mmHg 40%
    15:00 +39°C° 0 mm 3 mps 744 mmHg 39%
    16:00 +39°C° 0 mm 3 mps 743 mmHg 39%
    17:00 +40°C° 0 mm 4 mps 743 mmHg 38%
    18:00 +38°C° 0 mm 3 mps 743 mmHg 42%
    19:00 +37°C° 0 mm 3 mps 743 mmHg 45%
    20:00 +36°C° 0 mm 3 mps 744 mmHg 48%
    21:00 +35°C° 0 mm 4 mps 744 mmHg 52%
    22:00 +34°C° 0 mm 4 mps 744 mmHg 56%
    23:00 +33°C° 0 mm 4 mps 745 mmHg 60%

    Day after tomorrow, 20 July, Saturday

    Time Temperature Precipitation Wind Pressure Humidity
    00:00 +33°C° 0 mm 5 mps 744 mmHg 63%
    01:00 +32°C° 0 mm 5 mps 744 mmHg 66%
    02:00 +32°C° 0 mm 5 mps 744 mmHg 69%
    03:00 +30°C° 0 mm 4 mps 744 mmHg 70%
    04:00 +30°C° 0 mm 4 mps 744 mmHg 70%
    05:00 +30°C° 0 mm 3 mps 744 mmHg 70%
    06:00 +32°C° 0 mm 4 mps 745 mmHg 67%
    07:00 +33°C° 0 mm 4 mps 745 mmHg 64%
    08:00 +34°C° 0 mm 4 mps 745 mmHg 61%
    09:00 +35°C° 0 mm 4 mps 745 mmHg 58%
    10:00 +36°C° 0 mm 4 mps 745 mmHg 54%
    11:00 +37°C° 0 mm 3 mps 745 mmHg 50%
    12:00 +38°C° 0 mm 3 mps 745 mmHg 47%
    13:00 +39°C° 0 mm 3 mps 744 mmHg 44%
    14:00 +40°C° 0 mm 3 mps 744 mmHg 41%
    15:00 +40°C° 0 mm 3 mps 743 mmHg 41%
    16:00 +40°C° 0 mm 3 mps 743 mmHg 41%
    17:00 +40°C° 0 mm 3 mps 743 mmHg 40%
    18:00 +38°C° 0.2 mm 4 mps 743 mmHg 46%
    19:00 +36°C° 0.2 mm 4 mps 743 mmHg 51%
    20:00 +34°C° 0.2 mm 5 mps 743 mmHg 56%
    21:00 +34°C° 0.9 mm 5 mps 744 mmHg 61%
    22:00 +33°C° 0.9 mm 5 mps 744 mmHg 65%
    23:00 +32°C° 0.9 mm 4 mps 744 mmHg 70%

    21 July, Sunday

    Time Temperature Precipitation Wind Pressure Humidity
    00:00 +30°C° 1.2 mm 5 mps 744 mmHg 72%
    01:00 +30°C° 1.2 mm 5 mps 743 mmHg 75%
    02:00 +30°C° 1.2 mm 6 mps 743 mmHg 77%
    03:00 +30°C° 0.3 mm 5 mps 743 mmHg 77%
    04:00 +30°C° 0.3 mm 5 mps 743 mmHg 77%
    05:00 +30°C° 0.3 mm 4 mps 743 mmHg 78%
    06:00 +30°C° 0.1 mm 4 mps 744 mmHg 75%
    07:00 +31°C° 0.1 mm 3 mps 744 mmHg 72%
    08:00 +31°C° 0.1 mm 3 mps 744 mmHg 70%
    09:00 +34°C° 0.1 mm 3 mps 744 mmHg 65%
    10:00 +35°C° 0.1 mm 3 mps 744 mmHg 60%
    11:00 +36°C° 0.1 mm 3 mps 745 mmHg 55%
    12:00 +37°C° 0 mm 3 mps 744 mmHg 52%
    13:00 +38°C° 0 mm 3 mps 743 mmHg 49%
    14:00 +39°C° 0 mm 3 mps 743 mmHg 46%
    15:00 +39°C° 0 mm 3 mps 742 mmHg 46%
    16:00 +39°C° 0 mm 3 mps 742 mmHg 45%
    17:00 +39°C° 0 mm 3 mps 741 mmHg 45%
    18:00 +38°C° 0.1 mm 4 mps 742 mmHg 48%
    19:00 +37°C° 0.1 mm 4 mps 742 mmHg 52%
    20:00 +35°C° 0.1 mm 4 mps 742 mmHg 55%
    21:00 +34°C° 0.7 mm 4 mps 743 mmHg 61%
    22:00 +33°C° 0.7 mm 4 mps 743 mmHg 66%
    23:00 +32°C° 0.7 mm 4 mps 743 mmHg 71%

    22 July, Monday

    Time Temperature Precipitation Wind Pressure Humidity
    00:00 +32°C° 0 mm 4 mps 743 mmHg 73%
    01:00 +32°C° 0 mm 4 mps 743 mmHg 74%
    02:00 +30°C° 0 mm 4 mps 742 mmHg 76%
    03:00 +30°C° 0.1 mm 4 mps 742 mmHg 76%
    04:00 +30°C° 0.1 mm 4 mps 743 mmHg 76%
    05:00 +30°C° 0.1 mm 4 mps 743 mmHg 77%
    06:00 +30°C° 0.1 mm 4 mps 743 mmHg 74%
    07:00 +32°C° 0.1 mm 4 mps 744 mmHg 72%
    08:00 +32°C° 0.1 mm 4 mps 744 mmHg 70%
    09:00 +33°C° 0.1 mm 4 mps 744 mmHg 66%
    10:00 +34°C° 0.1 mm 4 mps 744 mmHg 62%
    11:00 +35°C° 0.1 mm 4 mps 744 mmHg 58%
    12:00 +36°C° 0 mm 4 mps 744 mmHg 56%
    13:00 +36°C° 0 mm 4 mps 743 mmHg 55%
    14:00 +36°C° 0 mm 3 mps 742 mmHg 53%
    15:00 +36°C° 0 mm 3 mps 742 mmHg 53%
    16:00 +37°C° 0 mm 3 mps 741 mmHg 52%
    17:00 +37°C° 0 mm 3 mps 741 mmHg 52%
    18:00 +36°C° 0 mm 3 mps 741 mmHg 55%
    19:00 +35°C° 0 mm 3 mps 742 mmHg 57%
    20:00 +34°C° 0 mm 3 mps 742 mmHg 60%
    21:00 +33°C° 0 mm 4 mps 742 mmHg 63%
    22:00 +33°C° 0 mm 4 mps 743 mmHg 66%
    23:00 +32°C° 0 mm 5 mps 743 mmHg 69%

    23 July, Tuesday

    Time Temperature Precipitation Wind Pressure Humidity
    00:00 +32°C° 0 mm 5 mps 743 mmHg 71%
    01:00 +32°C° 0 mm 5 mps 743 mmHg 72%
    02:00 +32°C° 0 mm 5 mps 742 mmHg 73%
    03:00 +30°C° 0 mm 4 mps 742 mmHg 73%
    04:00 +30°C° 0 mm 4 mps 742 mmHg 73%
    05:00 +30°C° 0 mm 4 mps 742 mmHg 73%
    06:00 +32°C° 0.1 mm 4 mps 743 mmHg 70%
    07:00 +32°C° 0.1 mm 4 mps 743 mmHg 68%
    08:00 +33°C° 0.1 mm 4 mps 743 mmHg 66%
    09:00 +33°C° 0 mm 4 mps 743 mmHg 63%
    10:00 +34°C° 0 mm 3 mps 743 mmHg 60%
    11:00 +34°C° 0 mm 3 mps 743 mmHg 58%
    12:00 +35°C° 0 mm 3 mps 743 mmHg 54%
    13:00 +36°C° 0 mm 3 mps 742 mmHg 51%
    14:00 +37°C° 0 mm 3 mps 742 mmHg 48%
    15:00 +37°C° 0 mm 4 mps 741 mmHg 48%
    16:00 +37°C° 0 mm 4 mps 741 mmHg 48%
    17:00 +37°C° 0 mm 4 mps 741 mmHg 47%
    18:00 +36°C° 0 mm 4 mps 741 mmHg 51%
    19:00 +35°C° 0 mm 4 mps 742 mmHg 54%
    20:00 +34°C° 0 mm 4 mps 742 mmHg 58%
    21:00 +34°C° 0 mm 4 mps 742 mmHg 61%
    22:00 +33°C° 0 mm 5 mps 742 mmHg 64%
    23:00 +32°C° 0 mm 6 mps 743 mmHg 68%
    Show more